www.pogodaiklimat.ru

Погода и климат >> Архив погоды >> Индия >> Kanyakumari


ПОГОДА в Kanyakumari

  • Прогноз погоды в Kanyakumari
  • Монитор погоды в Kanyakumari
  • Климат города

АРХИВ ПОГОДЫ в Kanyakumari

Время (UTC), дата Ветер
(напр.,м/с)
 
Видим.   Явления Облачность Т
(С)
Тd
(С)
f
(%)
Тe
(С)
Тes
(С)
Комфортность P
(гПа)
Po
(гПа)
Тmin
(С)
Tmax
(С)
R
(мм)
R24
(мм)
S
(см)
15 11.09 З 5 4000 м 3/1 600 м
[Sc Ci fib]
+26.2 +23.9 87 +36 +36 очень
душно
1010.5 1006.4
18 11.09 З 5 4000 м 4/1 600 м
[Sc Ci fib]
+26.0 +23.4 86 +35 +35 очень
душно
1011.2 1007.1
21 11.09 З 3 4000 м 3/1 600 м
[Sc Ci fib]
+25.4 +22.7 85 +33 +33 очень
душно
1009.4 1005.3
00 12.09 З 2 4000 м 3/1 600 м
[Sc Ci fib]
+25.0 +22.3 85 +33 +33 очень
душно
1009.6 1005.4
03 12.09 СЗ 1 10 км ясно +28.6 +22.1 68 +37 +45 очень
душно
1011.4 1007.3 +23.0 +29.4
06 12.09 З 4 10 км 1/1 600 м
[Cu hum]
+30.0 +23.3 67 +40 +53 опасность
солнечного
удара
1010.9 1006.8
09 12.09 З 5 10 км 1/1 600 м
[Sc]
+29.6 +24.8 75 +42 +49 опасность
перегрева
1007.6 1003.5
12 12.09 З 5 10 км 1/1 600 м
[Sc]
+27.2 +23.1 78 +36 +37 очень
душно
1007.3 1003.2 +30.4
15 12.09 З 5 4000 м 1/1 600 м
[Sc]
+25.6 +21.4 78 +33 +33 очень
душно
1008.6 1004.5
18 12.09 З 5 4000 м 1/1 600 м
[Sc]
+25.6 +21.1 76 +32 +32 очень
душно
1009.2 1005.1
21 12.09 З 6 4000 м 1/1 600 м
[Sc]
+25.6 +22.6 84 +34 +34 очень
душно
1007.8 1003.7
00 13.09 З 4 4000 м 1/1 600 м
[Sc]
+25.6 +22.6 84 +34 +34 очень
душно
1008.4 1004.3
03 13.09 З 6 10 км 1/1 600 м
[Sc]
+28.2 +22.9 73 +38 +40 очень
душно
1010.2 1006.1 +23.0 +30.4
06 13.09 З 5 10 км 1/1 600 м
[Sc]
+29.4 +24.2 74 +41 +51 опасность
перегрева
1009.3 1005.2
09 13.09 З 8 10 км 3/1 600 м
[Cu hum Ci fib]
+29.0 +24.1 75 +40 +43 очень
душно
1006.7 1002.6
12 13.09 З 7 10 км 3/1 600 м
[Sc Ci fib]
+27.0 +23.5 81 +37 +37 очень
душно
1006.0 1001.9 +31.2
15 13.09 З 5 4000 м 4/1 600 м
[Sc Ac trans Ci fib]
+26.8 +22.0 75 +35 +35 очень
душно
1007.9 1003.8
18 13.09 З 3 4000 м 3/1 600 м
[Sc Ci fib]
+26.6 +22.1 76 +34 +34 очень
душно
1009.0 1004.9
21 13.09 З 5 4000 м 3/1 600 м
[Sc Ci fib]
+24.4 +20.7 80 +30 +30 очень
душно
1008.1 1003.9
00 14.09 З 5 2000 м мгла 3/1 600 м
[Sc Ci fib]
+24.0 +21.0 83 +30 +30 очень
душно
1008.7 1004.5
03 14.09 З 5 4000 м мгла 4/1 600 м
[Sc Ci fib]
+27.0 +22.6 77 +36 +39 очень
душно
1010.1 1006.0 +22.4 +31.2
06 14.09 З 5 10 км 4/1 600 м
[Sc Ci sp]
1009.9 1005.8
09 14.09 З 6 10 км 3/1 600 м
[Sc Ci sp]
1007.9 1003.8
12 14.09 З 6 10 км 4/4 600 м
[Cb cap]
+26.6 +23.7 84 +36 +37 очень
душно
1007.7 1003.6 +30.6
15 14.09 З 6 4000 м 3/3 600 м
[Sc]
+26.6 +22.5 78 +35 +35 очень
душно
1010.3 1006.2
18 14.09 З 5 4000 м 1/1 600 м
[Sc]
+25.4 +22.4 83 +33 +33 очень
душно
1011.3 1007.2
21 14.09 З 4 4000 м 1/1 600 м
[Sc]
+25.0 +22.9 88 +33 +33 очень
душно
1009.0 1004.8
00 15.09 З 3 4000 м мгла 1/1 600 м
[Sc]
+24.8 +23.0 90 +33 +33 очень
душно
1009.9 1005.7
03 15.09 З 5 4000 м мгла 1/1 600 м
[Sc]
+27.2 +23.1 78 +36 +39 очень
душно
1010.9 1006.8 +23.0 +30.6
06 15.09 З 5 10 км 1/1 600 м
[Sc]
+27.6 +23.8 80 +38 +48 очень
душно
1010.7 1006.6
09 15.09 З 5 10 км 5/1 600 м
[Sc Ac trans Ci sp]
+28.8 +25.1 80 +42 +47 опасность
перегрева
1008.2 1004.1
12 15.09 З 5 10 км 8/1 600 м
[Cb calv Ac As Cs]
+26.6 +24.3 87 +37 +37 очень
душно
1007.9 1003.8 +29.8
15 15.09 З 5 4000 м 8/3 600 м
[Cu Sc Ac As Cs]
+26.6 +22.8 80 +35 +35 очень
душно
1009.3 1005.2
18 15.09 З 4 4000 м 8/3 600 м
[Cu Sc Ac As Cs]
+26.2 +22.3 79 +34 +34 очень
душно
1009.0 1004.9
21 15.09 З 5 4000 м 8/3 600 м
[Cu Sc Ac As Cs]
+25.6 +22.9 85 +34 +34 очень
душно
1007.3 1003.2
00 16.09 З 3 4000 м 5/1 600 м
[Cu Sc Ac As Cs]
+25.0 +22.9 88 +33 +33 очень
душно
1009.1 1004.9
03 16.09 З 4 10 км 6/1 600 м
[Cb calv Ac As Cs]
+27.6 +22.9 76 +37 +40 очень
душно
1010.6 1006.5 +23.4 +29.8
06 16.09 З 3 10 км 8/3 600 м
[Sc Ac As Cs]
+28.4 +24.7 80 +40 +48 очень
душно
1010.2 1006.1
09 16.09 З 4 10 км 8/3 600 м
[Sc Ac trans Ci sp]
+27.8 +24.6 83 +39 +44 очень
душно
1007.0 1002.9
12 16.09 З 5 10 км 8/3 600 м
[Sc diur, vesp Ac As Cs]
+26.8 +24.2 86 +37 +38 очень
душно
1006.9 1002.8 +29.6
15 16.09 З 4 4000 м 8/3 600 м
[Sc diur, vesp Ac As Cs]
+25.4 +23.0 87 +34 +34 очень
душно
1009.4 1005.3
18 16.09 З 3 4000 м 8/3 600 м
[Sc diur, vesp Ac As Cs]
+25.4 +23.0 87 +34 +34 очень
душно
1009.3 1005.2
21 16.09 З 5 4000 м 8/3 600 м
[Sc diur, vesp Ac As Cs]
+25.0 +22.3 85 +33 +33 очень
душно
1007.4 1003.3
00 17.09 З 4 4000 м 9/4 600 м
[Sc diur, vesp Ac As Cs]
+25.2 +22.3 84 +33 +33 очень
душно
1008.0 1003.9
03 17.09 З 5 10 км 6/1 600 м
[Sc Ac trans Cs]
+27.4 +23.3 78 +37 +39 очень
душно
1009.7 1005.6 +23.3 +29.6
06 17.09 З 4 10 км 10/4 600 м
[Sc Ac As Cs]
+28.0 +23.3 76 +38 +42 очень
душно
1009.7 1005.6
09 17.09 З 4 10 км 9/3 600 м
[Sc Ac As Cs]
+28.4 +25.0 82 +41 +45 опасность
перегрева
1007.8 1003.7
12 17.09 З 5 10 км 9/3 600 м
[Sc Ac As Cs]
+27.0 +23.5 81 +37 +37 очень
душно
1007.3 1003.2 +29.2
15 17.09 З 3 4000 м 9/3 600 м
[Sc Ac As]
+26.6 +24.3 87 +37 +37 очень
душно
1009.2 1005.1
18 17.09 З 3 4000 м 6/3 600 м
[Sc Ac As]
+26.4 +22.9 81 +35 +35 очень
душно
1010.2 1006.1
21 17.09 З 3 4000 м 6/3 600 м
[Sc Ac trans Ci sp]
+25.6 +24.1 91 +35 +35 очень
душно
1008.2 1004.1
00 18.09 З 3 4000 м 6/3 600 м
[Sc Ac trans Ci sp]
+25.8 +24.1 90 +36 +36 очень
душно
1008.5 1004.4
03 18.09 З 3 10 км 6/3 600 м
[Sc Ac trans Ci sp]
+27.6 +25.0 86 +40 +43 очень
душно
1010.5 1006.4 +23.9 +29.2
06 18.09 З 4 10 км 8/3 600 м
[Cu med, cong Ac trans Ci sp]
+29.6 +26.0 81 +44 +51 опасность
перегрева
1009.9 1005.8
09 18.09 З 6 4000 м 8/3 600 м
[Cu Sc Ac trans Ci sp]
+29.0 +25.3 80 +42 +45 опасность
перегрева
1008.3 1004.2
12 18.09 З 6 10 км 9/3 600 м
[Cu Sc Ac As Cs]
+27.6 +24.1 81 +38 +39 очень
душно
1008.1 1004.0 +30.5

 

Местоположение метеостанции Kanyakumari (Tamil Nadu, Индия): широта 8.08 долгота 77.50 высота над уровнем моря 37 м.

В архиве по умолчанию представлена погода в Kanyakumari за последнюю неделю. Архивные данные за месяц целиком и за предыдущие месяцы, начиная с января 2011 года, Вы можете получить, выбрав интересующий диапазон дат из раскрывающегося списка и нажав кнопку "Ввод!".


*Определитесь, кто Вы:
робот инопланетянин человек

Внимание! Время в таблицах - всемирное. Для получения местного времени необходимо прибавить поправку, которая в Kanyakumari равна 5.5 ч.

Смотрите также архив погоды в соседних городах и на ближайших метеорологических станциях:

Погода в Thiruvananthapuram Air (Kerala, Индия) (74 км)
Погода в Thiruvananthapuram (Kerala, Индия) (75 км)
Погода в Palayankottai (Tamil Nadu, Индия) (77 км)
Погода в Tuticorin New Port (Tamil Nadu, Индия) (106 км)
Погода в Punalur (Kerala, Индия) (121 км)
Погода в Kovilangulam (Tamil Nadu, Индия) (175 км)
Погода в Kottayam (Kerala, Индия) (189 км)
Погода в Alapuzha (Kerala, Индия) (202 км)
Погода в Madurai Airport (Tamil Nadu, Индия) (205 км)
Погода в Madurai (Tamil Nadu, Индия) (216 км)

Пояснения к столбцам:

Ветер - указаны скорость ветра в м/с - средняя за 10 мин, порывы в срок и между сроками (в фигурных скобках) и направление, откуда дует ветер: С - северный, СВ - северо-восточный, В - восточный, ЮВ - юго-восточный, Ю - южный, ЮЗ - юго-западный, З - западный, СЗ - северо-западный.
Видимость - горизонтальная дальность видимости в метрах или километрах. При видимости от 1 до 10 км при отсутствии осадков обычно наблюдается дымка, при ухудшении видимости до 1 км и менее - туман. В сухую погоду видимость может ухудшаться дымом, пылью или мглою.
Явления - указаны атмосферные явления, наблюдавшиеся в срок или в последний час перед сроком; фигурными скобками обозначены явления, наблюдавшиеся между сроками (за 1-3 часа до срока); квадратными скобками обозначены град или гололедные отложения с указанием их диаметра в мм.
Облачность - указаны через наклонную черту общая и нижняя облачность в баллах и высота нижней границы облаков в метрах; квадратными скобками обозначены формы облаков: Ci - перистые, Cs - перисто-слоистые, Cc - перисто-кучевые, Ac - высококучевые, As - высокослоистые, Sc - слоисто-кучевые, Ns - слоисто-дождевые, Cu - кучевые, Cb - кучево-дождевые. Подробнее классификацию облаков см. в Атласе облаков (PDF).
T - Температура воздуха - температура, измеренная на высоте 2 м над землей.
Td - Температура точки росы - температура, при понижении до которой содержащийся в воздухе водяной пар достигнет насыщения.
f - Относительная влажность воздуха - влажноcть воздуха, измеренная на высоте 2 м над землей.
Te - Эффективная температура - температура, которую ощущает одетый по сезону человек в тени. Характеристика душности погоды. При расчете учитывается влияние влажности воздуха и скорости ветра на теплоощущения человека.
Tes - Эффективная температура на солнце - температура, которую ощущает человек, с поправкой на солнечный нагрев. Характеристика знойности погоды. Зависит от высоты солнца над горизонтом, облачности и скорости ветра. Ночью, в пасмурную погоду, а также при ветре 12 м/с и более поправка равна нулю.
P - Атмосферное давление - приведенное к уровню моря атмосферное давление.
Po - Атмосферное давление - измеренное на уровне метеостанции атмосферное давление.
Tmin - Минимальная температура - минимум температуры воздуха на высоте 2 м над землей.
Tmax - Максимальная температура - максимум температуры воздуха на высоте 2 м над землей.
R - Количество осадков - Количество выпавших осадков за период времени, мм. При наведении курсора мыши на число - период времени, за который выпало указанное количество осадков.
R24 - Количество осадков - Количество выпавших осадков за 24 часа, мм.
S - Снежный покров - Высота снежного покрова, см. При наведении курсора мыши на число - состояние снежного покрова и степень покрытия местности в баллах.